[[{"header":{"parameterUnit":"m.s-1","parameterCategory":1,"la1":30.2991,"la2":30.254,"lo1":-89.0895,"lo2":-89.0444,"dy":0.0017,"dx":0.0017,"nx":28,"ny":28,"refTime":"2024-10-09T09:00:00:Z","depth":0,"parameterNumber":2,"parameterNumberName":"U-component_of_WINDS"},"data":[0,0,0,0,0,0,0,0,0,0,0,0,0,0,0,0,0,0,0,0,0,0,0,0,0,0,0,0,0,0,0,0,0,0,0,0,0,0,0,0,0,0,0,0,0,0,0,0,0,0,0,0,0,0,0,0,0,0,-0.7395,-0.7395,0,-0.738,-0.738,-0.738,-0.7342,-0.7341,-0.7341,-0.734,-0.7326,-0.7327,-0.7327,0,0,0,0,0,0,0,0,0,0,0,0,0,-0.739,-0.7391,-0.7395,-0.7395,-0.7394,-0.738,-0.738,-0.738,-0.7342,-0.7341,-0.734,-0.734,-0.7326,-0.7327,-0.7327,0,0,0,0,0,0,0,0,0,0,0,0,0,-0.7386,-0.7391,-0.7395,-0.7374,-0.7372,-0.738,-0.738,-0.738,-0.7343,-0.7341,-0.734,-0.7339,-0.7326,-0.7327,-0.7327,-0.7355,0,0,-0.7329,-0.7329,0,0,0,0,0,0,0,0,-0.7386,-0.7386,-0.7377,-0.7375,-0.7373,-0.7362,-0.7373,-0.7371,-0.7343,-0.7354,-0.734,-0.7338,-0.7339,-0.7339,-0.7339,-0.7354,-0.7354,-0.7329,-0.7329,-0.733,-0.733,0,0,0,0,0,0,0,-0.7387,-0.7386,-0.7389,-0.7377,-0.7375,-0.7365,-0.7363,-0.7373,-0.7353,-0.7353,-0.735,-0.7349,-0.7338,-0.7338,-0.7338,-0.7353,-0.7329,-0.7329,-0.733,-0.733,-0.7391,-0.7392,0,0,0,0,0,0,-0.739,-0.7387,-0.7389,-0.7389,-0.7377,-0.7367,-0.7364,-0.7367,-0.7353,-0.735,-0.735,-0.7347,-0.7338,-0.7337,-0.7337,-0.7369,-0.733,-0.733,-0.733,-0.7389,-0.7391,-0.7392,0,0,0,0,0,0,-0.739,-0.739,-0.739,-0.7387,-0.7386,-0.7368,-0.7371,-0.7367,-0.7367,-0.7351,-0.7347,-0.7354,-0.7337,-0.7336,-0.7351,-0.7368,-0.733,-0.7331,-0.7388,-0.739,-0.7392,-0.7432,0,0,0,0,0,0,-0.739,-0.7391,-0.7401,-0.7387,-0.7387,-0.7404,-0.7372,-0.7368,-0.7368,-0.7364,-0.7354,-0.7351,-0.7336,-0.735,-0.7351,-0.7368,-0.7331,-0.7386,-0.7389,-0.7391,-0.7429,-0.7435,-0.744,0,0,0,0,0,-0.739,-0.7413,-0.7402,-0.7402,-0.7399,-0.7405,-0.7404,-0.7386,-0.737,-0.738,-0.7369,-0.7351,-0.7366,-0.7352,-0.7353,-0.737,-0.7385,-0.7388,-0.7391,-0.7427,-0.7434,-0.744,0,0,0,0,0,0,-0.743,-0.7411,-0.7398,-0.7418,-0.7413,-0.7398,-0.7411,-0.7395,-0.7395,-0.7391,-0.7369,-0.7367,-0.7384,-0.7378,-0.7363,-0.7396,-0.7372,-0.7376,-0.7399,-0.7406,-0.7411,-0.7413,-0.7332,0,0,0,0,0,-0.7441,-0.7447,-0.743,-0.7449,-0.7447,-0.743,-0.7431,-0.7418,-0.7412,-0.741,-0.74,-0.7396,-0.7399,-0.7402,-0.7405,-0.7428,-0.7425,-0.744,-0.7446,-0.745,-0.7453,-0.7465,-0.7472,-0.7402,-0.7402,-0.7402,0,0,-0.7464,-0.7454,-0.746,-0.7457,-0.7452,-0.7458,-0.7428,-0.7437,-0.7441,-0.7411,-0.7424,-0.7417,-0.741,-0.7429,-0.7437,-0.7425,-0.7472,-0.7454,-0.7458,-0.7458,-0.7469,-0.7475,-0.7481,-0.7404,-0.7403,-0.7403,0,0,-0.7509,-0.7503,-0.7518,-0.7513,-0.7505,-0.7492,-0.7496,-0.7484,-0.7478,-0.749,-0.7467,-0.7473,-0.7479,-0.7475,-0.7474,-0.7517,-0.75,-0.7519,-0.7548,-0.7559,-0.7565,-0.757,-0.7585,-0.7591,-0.7522,-0.7522,-0.7522,0,-0.7539,-0.7548,-0.7527,-0.7537,-0.7537,-0.7509,-0.7524,-0.752,-0.7514,-0.7514,-0.75,-0.7507,-0.7501,-0.7519,-0.7529,-0.7529,-0.7532,-0.752,-0.7566,-0.757,-0.7574,-0.7589,-0.7595,-0.7524,-0.7524,-0.7524,-0.7523,0,-0.7585,-0.7591,-0.7604,-0.7598,-0.7599,-0.7611,-0.7593,-0.7596,-0.7582,-0.7572,-0.7584,-0.7575,-0.7575,-0.7578,-0.7565,-0.7594,-0.7586,-0.757,-0.7546,-0.7584,-0.7597,-0.7602,-0.7527,-0.7526,-0.7526,-0.7525,0,0,-0.7656,-0.7637,-0.7643,-0.7639,-0.7628,-0.7633,-0.7644,-0.7643,-0.7646,-0.7643,-0.7651,-0.7657,-0.7641,-0.764,-0.7626,-0.7636,-0.7671,-0.7618,-0.7617,-0.7628,-0.7702,-0.7715,-0.7721,-0.7659,-0.766,-0.7661,-0.7702,0,-0.7699,-0.7716,-0.7698,-0.7719,-0.7725,-0.7698,-0.7707,-0.7702,-0.7692,-0.7695,-0.7685,-0.7689,-0.7668,-0.7667,-0.7675,-0.7665,-0.7685,-0.7661,-0.7667,-0.7668,-0.767,-0.7728,-0.7742,-0.7782,-0.7707,-0.7708,-0.7709,0,-0.7752,-0.775,-0.7771,-0.7758,-0.776,-0.7769,-0.7766,-0.777,-0.7763,-0.7755,-0.7753,-0.7736,-0.7746,-0.7722,-0.7735,-0.7719,-0.7721,-0.7716,-0.7717,-0.7717,-0.7691,-0.7731,-0.7794,-0.78,-0.7717,-0.7716,-0.7715,0,-0.7801,-0.7804,-0.7817,-0.7815,-0.78,-0.7807,-0.7801,-0.7793,-0.7793,-0.7791,-0.7791,-0.7791,-0.779,-0.779,-0.7774,-0.7758,-0.7789,-0.7764,-0.7783,-0.7784,-0.7791,-0.7791,-0.7856,-0.7792,-0.7792,-0.7792,-0.7791,0,-0.7851,-0.7866,-0.7839,-0.7848,-0.7863,-0.7841,-0.7857,-0.7848,-0.7841,-0.7847,-0.7824,-0.783,-0.7807,-0.7811,-0.7798,-0.7811,-0.7811,-0.7806,-0.7802,-0.7808,-0.7809,-0.7809,-0.7806,-0.7793,-0.7793,-0.7792,-0.7792,0,-0.791,-0.7893,-0.7905,-0.789,-0.7886,-0.7898,-0.7885,-0.7892,-0.788,-0.7888,-0.7889,-0.7871,-0.7874,-0.7857,-0.7857,-0.7848,-0.7868,-0.786,-0.7871,-0.7868,-0.7888,-0.7887,-0.7956,-0.7964,-0.7894,-0.7895,-0.7896,0,-0.7943,-0.7954,-0.7939,-0.7941,-0.7936,-0.794,-0.794,-0.7919,-0.792,-0.7912,-0.7921,-0.7922,-0.7922,-0.7929,-0.7916,-0.7916,-0.7907,-0.7932,-0.7907,-0.7913,-0.7908,-0.7908,-0.7909,-0.7937,-0.7938,-0.7939,-0.7939,0,-0.8004,-0.7995,-0.7996,-0.7994,-0.7995,-0.7992,-0.7988,-0.7991,-0.7968,-0.7971,-0.7974,-0.7974,-0.7974,-0.7976,-0.7973,-0.7967,-0.795,-0.7947,-0.7951,-0.7958,-0.7964,-0.7961,-0.7885,-0.7945,-0.7945,-0.7944,-0.7944,-0.7944,-0.8051,-0.8059,-0.805,-0.8051,-0.8046,-0.8042,-0.8048,-0.8037,-0.8038,-0.8037,-0.8024,-0.8029,-0.8021,-0.8016,-0.8012,-0.8016,-0.8004,-0.8011,-0.8012,-0.8014,-0.8018,-0.7963,-0.8015,-0.8015,-0.8015,-0.8015,-0.8014,0,-0.8111,-0.8103,-0.8105,-0.81,-0.8101,-0.8084,-0.8078,-0.8081,-0.8085,-0.8079,-0.8079,-0.8082,-0.8084,-0.8071,-0.807,-0.8076,-0.8068,-0.8077,-0.8076,-0.8075,-0.8028,-0.8024,-0.8083,-0.8083,-0.8083,-0.8083,-0.8083,-0.8083,-0.8142,-0.8154,-0.8144,-0.8153,-0.8145,-0.815,-0.8148,-0.8145,-0.814,-0.8144,-0.8145,-0.8136,-0.8127,-0.8126,-0.8126,-0.8122,-0.8123,-0.8135,-0.8129,-0.8085,-0.8079,-0.8072,-0.8068,-0.8135,-0.8136,-0.8175,-0.8175,-0.8176]},{"header":{"parameterUnit":"m.s-1","parameterCategory":1,"la1":30.2991,"la2":30.254,"lo1":-89.0895,"lo2":-89.0444,"dy":0.0017,"dx":0.0017,"nx":28,"ny":28,"refTime":"2024-10-09T09:00:00:Z","depth":0,"parameterNumber":3,"parameterNumberName":"V-component_of_WINDS"},"data":[0,0,0,0,0,0,0,0,0,0,0,0,0,0,0,0,0,0,0,0,0,0,0,0,0,0,0,0,0,0,0,0,0,0,0,0,0,0,0,0,0,0,0,0,0,0,0,0,0,0,0,0,0,0,0,0,0,0,-3.3546,-3.3547,0,-3.3613,-3.3614,-3.3615,-3.3597,-3.3596,-3.3595,-3.3593,-3.3659,-3.3661,-3.3664,0,0,0,0,0,0,0,0,0,0,0,0,0,-3.34,-3.3403,-3.3546,-3.3547,-3.3548,-3.3613,-3.3614,-3.3615,-3.3598,-3.3596,-3.3594,-3.3593,-3.3658,-3.3661,-3.3665,0,0,0,0,0,0,0,0,0,0,0,0,0,-3.3465,-3.3404,-3.3546,-3.3547,-3.3548,-3.3613,-3.3614,-3.3615,-3.3598,-3.3596,-3.3594,-3.3592,-3.3656,-3.3661,-3.3665,-3.3732,0,0,-3.3679,-3.3681,0,0,0,0,0,0,0,0,-3.3461,-3.347,-3.3546,-3.3547,-3.3548,-3.3595,-3.3586,-3.3654,-3.3598,-3.3579,-3.3593,-3.3591,-3.3639,-3.3645,-3.3661,-3.3735,-3.3738,-3.3679,-3.3682,-3.3684,-3.3685,0,0,0,0,0,0,0,-3.3457,-3.3467,-3.3572,-3.3547,-3.3548,-3.3543,-3.355,-3.3599,-3.3619,-3.358,-3.3579,-3.3588,-3.3639,-3.3657,-3.3663,-3.3739,-3.3679,-3.3683,-3.3686,-3.3687,-3.3873,-3.3875,0,0,0,0,0,0,-3.3452,-3.3463,-3.357,-3.3574,-3.3499,-3.3548,-3.3555,-3.3582,-3.3618,-3.3622,-3.3589,-3.3587,-3.3651,-3.3658,-3.3665,-3.3747,-3.3684,-3.3688,-3.369,-3.3871,-3.3873,-3.3876,0,0,0,0,0,0,-3.3449,-3.3461,-3.3568,-3.3519,-3.3532,-3.3552,-3.3582,-3.3584,-3.3602,-3.3625,-3.3628,-3.3604,-3.3649,-3.3659,-3.3716,-3.3749,-3.369,-3.3694,-3.3868,-3.3871,-3.3875,-3.391,0,0,0,0,0,0,-3.3445,-3.346,-3.3486,-3.352,-3.3535,-3.3618,-3.3584,-3.3587,-3.3611,-3.3608,-3.364,-3.3644,-3.3648,-3.371,-3.3721,-3.3754,-3.3697,-3.3865,-3.3869,-3.3873,-3.3906,-3.3914,-3.3921,0,0,0,0,0,-3.3439,-3.3492,-3.3488,-3.3501,-3.3568,-3.362,-3.3629,-3.3634,-3.3613,-3.3639,-3.3654,-3.3643,-3.3744,-3.3716,-3.3728,-3.3763,-3.3863,-3.3868,-3.3873,-3.3903,-3.3913,-3.3921,0,0,0,0,0,0,-3.346,-3.3497,-3.3492,-3.3558,-3.3586,-3.3617,-3.365,-3.3644,-3.3678,-3.3674,-3.3678,-3.3686,-3.3745,-3.376,-3.3728,-3.383,-3.38,-3.3808,-3.3818,-3.3828,-3.3836,-3.383,-3.3701,0,0,0,0,0,-3.3473,-3.3514,-3.3543,-3.3598,-3.3613,-3.3629,-3.3652,-3.3654,-3.3684,-3.3695,-3.3714,-3.3742,-3.378,-3.3805,-3.3841,-3.3909,-3.3916,-3.3939,-3.3946,-3.3953,-3.3959,-3.3997,-3.4007,-3.3892,-3.3892,-3.3892,0,0,-3.3499,-3.3524,-3.3549,-3.3603,-3.3625,-3.3667,-3.3639,-3.3684,-3.3714,-3.3701,-3.3757,-3.3773,-3.3804,-3.3867,-3.3896,-3.3881,-3.3993,-3.3959,-3.3964,-3.3967,-3.4003,-3.4014,-3.4024,-3.3896,-3.3895,-3.3895,0,0,-3.3567,-3.359,-3.3639,-3.3663,-3.3698,-3.3709,-3.3721,-3.3754,-3.3764,-3.3821,-3.3812,-3.3849,-3.3914,-3.3937,-3.3958,-3.4038,-3.4029,-3.405,-3.4089,-3.4126,-3.4135,-3.4143,-3.4172,-3.4182,-3.4056,-3.4056,-3.4056,0,-3.3594,-3.3657,-3.3665,-3.3711,-3.3735,-3.3728,-3.3777,-3.38,-3.3844,-3.3861,-3.3844,-3.3928,-3.3948,-3.4018,-3.4037,-3.4054,-3.4068,-3.4045,-3.4133,-3.4141,-3.4149,-3.4177,-3.4187,-3.4059,-3.4058,-3.4058,-3.4058,0,-3.3689,-3.3733,-3.3768,-3.3814,-3.3842,-3.389,-3.3904,-3.3932,-3.3932,-3.3945,-3.4003,-3.4029,-3.4071,-3.4087,-3.4087,-3.4157,-3.4147,-3.4132,-3.4101,-3.4162,-3.4188,-3.4199,-3.4062,-3.4061,-3.406,-3.406,0,0,-3.377,-3.3821,-3.3834,-3.3855,-3.3895,-3.3929,-3.3977,-3.4019,-3.4043,-3.4075,-3.4115,-3.4172,-3.4159,-3.4182,-3.4185,-3.4218,-3.4281,-3.4199,-3.42,-3.4213,-3.436,-3.4371,-3.4383,-3.4276,-3.4278,-3.4279,-3.4357,0,-3.3841,-3.3927,-3.3936,-3.4012,-3.4053,-3.4048,-3.4089,-3.4118,-3.4132,-3.4168,-3.4183,-3.4224,-3.4204,-3.4218,-3.425,-3.4266,-3.431,-3.4261,-3.4312,-3.4314,-3.4304,-3.4396,-3.4407,-3.448,-3.4368,-3.4369,-3.4371,0,-3.3935,-3.3972,-3.4053,-3.4089,-3.4106,-3.4144,-3.4185,-3.422,-3.4253,-3.426,-3.4288,-3.4288,-3.4337,-3.4306,-3.4374,-3.434,-3.4362,-3.4374,-3.4377,-3.4381,-3.4345,-3.4403,-3.4503,-3.4514,-3.4387,-3.4385,-3.4384,0,-3.3986,-3.4056,-3.4114,-3.4132,-3.4175,-3.4202,-3.4221,-3.4252,-3.4278,-3.4314,-3.4331,-3.4371,-3.4393,-3.4425,-3.4435,-3.4411,-3.4503,-3.4472,-3.4511,-3.451,-3.4529,-3.4527,-3.4633,-3.4544,-3.4544,-3.4544,-3.4543,0,-3.4064,-3.4114,-3.4137,-3.4173,-3.4228,-3.4239,-3.4293,-3.4311,-3.4339,-3.4378,-3.4376,-3.4412,-3.4424,-3.4462,-3.447,-3.4526,-3.4536,-3.4543,-3.4545,-3.4543,-3.4542,-3.4557,-3.4552,-3.4547,-3.4546,-3.4545,-3.4545,0,-3.413,-3.4148,-3.421,-3.4247,-3.4258,-3.4297,-3.4329,-3.4363,-3.4377,-3.4426,-3.4438,-3.4461,-3.4506,-3.452,-3.4574,-3.458,-3.4645,-3.4642,-3.4634,-3.4634,-3.4671,-3.4668,-3.479,-3.4807,-3.4707,-3.4707,-3.4708,0,-3.4178,-3.4216,-3.4259,-3.4285,-3.4306,-3.4348,-3.4376,-3.4388,-3.4416,-3.4459,-3.4488,-3.4533,-3.457,-3.4642,-3.4663,-3.4704,-3.4702,-3.4742,-3.4708,-3.4706,-3.4703,-3.47,-3.4705,-3.4748,-3.4749,-3.475,-3.4751,0,-3.4262,-3.427,-3.4309,-3.4354,-3.4387,-3.4421,-3.4455,-3.4476,-3.4494,-3.4526,-3.4573,-3.4602,-3.4659,-3.4703,-3.4747,-3.4766,-3.4761,-3.4762,-3.4773,-3.4771,-3.4765,-3.4769,-3.4651,-3.4759,-3.4758,-3.4757,-3.4757,-3.4756,-3.432,-3.4354,-3.439,-3.4435,-3.4463,-3.4495,-3.4529,-3.455,-3.4589,-3.4637,-3.4643,-3.4694,-3.4727,-3.4785,-3.4807,-3.4847,-3.4835,-3.4851,-3.4855,-3.4858,-3.4862,-3.476,-3.4855,-3.4854,-3.4854,-3.4854,-3.4854,0,-3.4403,-3.4427,-3.4469,-3.4517,-3.4553,-3.4548,-3.4586,-3.4616,-3.4661,-3.4694,-3.4731,-3.4786,-3.4831,-3.4856,-3.4901,-3.4928,-3.4927,-3.4939,-3.4937,-3.4942,-3.4869,-3.4855,-3.4939,-3.4939,-3.4939,-3.4939,-3.4939,-3.4939,-3.4451,-3.4509,-3.4522,-3.4594,-3.4618,-3.4669,-3.4691,-3.4721,-3.4747,-3.4809,-3.4847,-3.4864,-3.4894,-3.4942,-3.4982,-3.4989,-3.5005,-3.5018,-3.5023,-3.4955,-3.4946,-3.4938,-3.4925,-3.5022,-3.5022,-3.5092,-3.5093,-3.5093]}]]